Location: Tel Aviv
(32.0670°N, 34.7670°E)
Time: 20:09:21
(UTC+03:00)

Transit 2A - Pass Details

Date: 29 May 2024
Orbit: 593 x 959 km, 66.7° (Epoch: 14 June)

Event Time Altitude Azimuth Distance (km) Brightness Sun altitude
Rises 22:05:23 0° 242° (WSW) 2,899 9.1 -24.9°
Reaches altitude 10° 22:08:06 10° 259° (W) 2,042 8.5 -25.2°
Maximum altitude 22:11:29 20° 307° (NW) 1,557 8.3 -25.7°
Drops below altitude 10° 22:15:06 10° 354° (N) 2,199 9.1 -26.2°
Sets 22:18:11 0° 11° (N) 3,200 9.8 -26.5°
